| time (UTC) | temp F | wind direction | speed MPH | gust MPH | rain 1hr in | rain 24hr in | rain mn in | humidity % | barometer mb |
| 20260902234615 | 75 | 106 | 6.0 | 11.0 | 0.00 | 0.00 | 0.00 | 50 | 1010.6 |
| 20260902233102 | 78 | 142 | 6.0 | 12.0 | 0.00 | 0.00 | 0.00 | 45 | 1010.4 |
| 20260902231610 | 78 | 53 | 1.0 | 6.0 | 0.00 | 0.00 | 0.00 | 44 | 1010.5 |
| 20260902230105 | 79 | 45 | 3.0 | 14.0 | 0.00 | 0.00 | 0.00 | 42 | 1010.6 |
| 20260902230001 | 79 | 76 | 4.0 | 14.0 | 0.00 | 0.00 | 0.00 | 41 | 1010.6 |
| 20260902224611 | 80 | 28 | 5.0 | 12.0 | 0.00 | 0.00 | 0.00 | 39 | 1010.7 |
| 20260902223059 | 82 | 100 | 5.0 | 10.0 | 0.00 | 0.00 | 0.00 | 37 | 1010.9 |
| 20260902221605 | 83 | 232 | 2.0 | 11.0 | 0.00 | 0.00 | 0.00 | 36 | 1011.1 |
| 20260902220059 | 82 | 282 | 3.0 | 9.0 | 0.00 | 0.00 | 0.00 | 35 | 1011.1 |
| 20260902214602 | 80 | 246 | 9.0 | 15.0 | 0.00 | 0.00 | 0.00 | 36 | 1011.2 |
| 20260902213113 | 79 | 230 | 3.0 | 9.0 | 0.00 | 0.00 | 0.00 | 37 | 1011.5 |
| 20260902211604 | 79 | 248 | 6.0 | 16.0 | 0.00 | 0.00 | 0.00 | 38 | 1011.6 |
| 20260902210100 | 80 | 286 | 5.0 | 13.0 | 0.00 | 0.00 | 0.00 | 38 | 1011.8 |
| 20260902204559 | 80 | 261 | 8.0 | 14.0 | 0.00 | 0.01 | 0.00 | 37 | 1012.1 |
| 20260902203106 | 78 | 286 | 4.0 | 14.0 | 0.00 | 0.01 | 0.00 | 39 | 1012.4 |
| 20260902201607 | 79 | 250 | 5.0 | 13.0 | 0.00 | 0.01 | 0.00 | 38 | 1012.7 |
| 20260902200134 | 80 | 271 | 5.0 | 12.0 | 0.00 | 0.01 | 0.00 | 38 | 1013.0 |
| 20260902194559 | 79 | 315 | 2.0 | 15.0 | 0.00 | 0.05 | 0.00 | 38 | 1013.2 |
| 20260902193101 | 77 | 224 | 0.0 | 17.0 | 0.00 | 0.05 | 0.00 | 42 | 1013.5 |
| 20260902191600 | 77 | 251 | 6.0 | 12.0 | 0.00 | 0.05 | 0.00 | 41 | 1013.7 |
| 20260902190109 | 79 | 267 | 5.0 | 11.0 | 0.00 | 0.05 | 0.00 | 39 | 1014.0 |
| 20260902190001 | 79 | 265 | 6.0 | 11.0 | 0.00 | 0.05 | 0.00 | 39 | 1014.0 |
| 20260902184601 | 79 | 263 | 5.0 | 12.0 | 0.00 | 0.25 | 0.00 | 40 | 1014.4 |
| 20260902183108 | 79 | 250 | 6.0 | 11.0 | 0.00 | 0.25 | 0.00 | 39 | 1014.7 |
| 20260902181600 | 78 | 308 | 5.0 | 10.0 | 0.00 | 0.25 | 0.00 | 40 | 1014.8 |
| 20260902180116 | 76 | 236 | 4.0 | 14.0 | 0.00 | 0.25 | 0.00 | 42 | 1015.2 |
| 20260902174600 | 77 | 194 | 8.0 | 13.0 | 0.00 | 0.26 | 0.00 | 40 | 1015.3 |
| 20260902173100 | 77 | 260 | 4.0 | 16.0 | 0.00 | 0.26 | 0.00 | 41 | 1015.4 |
| 20260902171602 | 79 | 239 | 7.0 | 14.0 | 0.00 | 0.26 | 0.00 | 41 | 1015.7 |
| 20260902170059 | 77 | 254 | 5.0 | 10.0 | 0.00 | 0.26 | 0.00 | 43 | 1015.9 |
| 20260902164559 | 77 | 215 | 5.0 | 14.0 | 0.00 | 0.26 | 0.00 | 42 | 1015.8 |
| 20260902163101 | 76 | 263 | 8.0 | 14.0 | 0.00 | 0.26 | 0.00 | 44 | 1015.7 |
| 20260902161558 | 76 | 260 | 7.0 | 18.0 | 0.00 | 0.26 | 0.00 | 44 | 1015.8 |
| 20260902160105 | 75 | 200 | 7.0 | 16.0 | 0.00 | 0.26 | 0.00 | 46 | 1015.7 |
| 20260902154559 | 74 | 246 | 4.0 | 12.0 | 0.00 | 0.26 | 0.00 | 49 | 1015.6 |
| 20260902153058 | 73 | 251 | 3.0 | 8.0 | 0.00 | 0.26 | 0.00 | 53 | 1015.6 |
| 20260902151558 | 72 | 304 | 0.0 | 8.0 | 0.00 | 0.26 | 0.00 | 56 | 1015.7 |
| 20260902150058 | 69 | 301 | 2.0 | 6.0 | 0.00 | 0.26 | 0.00 | 59 | 1015.7 |
| 20260902144602 | 66 | 283 | 0.0 | 2.0 | 0.00 | 0.26 | 0.00 | 67 | 1015.8 |
| 20260902143100 | 63 | 311 | 2.0 | 4.0 | 0.00 | 0.26 | 0.00 | 71 | 1015.8 |
| 20260902141605 | 60 | 303 | 1.0 | 3.0 | 0.00 | 0.26 | 0.00 | 74 | 1016.0 |
| 20260902134558 | 56 | 277 | 4.0 | 8.0 | 0.00 | 0.26 | 0.00 | 78 | 1015.8 |
| 20260902133058 | 55 | 268 | 4.0 | 7.0 | 0.00 | 0.26 | 0.00 | 81 | 1015.7 |
| 20260902131606 | 54 | 285 | 3.0 | 8.0 | 0.00 | 0.26 | 0.00 | 82 | 1015.5 |
| 20260902130058 | 53 | 273 | 6.0 | 9.0 | 0.00 | 0.26 | 0.00 | 82 | 1015.4 |
| 20260902124602 | 53 | 281 | 4.0 | 7.0 | 0.00 | 0.26 | 0.00 | 82 | 1015.4 |
| 20260902123059 | 53 | 263 | 5.0 | 8.0 | 0.00 | 0.26 | 0.00 | 82 | 1015.3 |
| 20260902121604 | 53 | 268 | 5.0 | 8.0 | 0.00 | 0.26 | 0.00 | 83 | 1015.1 |
| 20260902120059 | 54 | 279 | 3.0 | 8.0 | 0.00 | 0.26 | 0.00 | 82 | 1014.9 |
| 20260902114559 | 54 | 288 | 5.0 | 7.0 | 0.00 | 0.26 | 0.00 | 82 | 1014.8 |
| 20260902113112 | 54 | 269 | 4.0 | 11.0 | 0.00 | 0.26 | 0.00 | 82 | 1014.8 |
| 20260902111603 | 53 | 251 | 4.0 | 7.0 | 0.00 | 0.26 | 0.00 | 82 | 1014.6 |
| 20260902110059 | 54 | 261 | 4.0 | 11.0 | 0.00 | 0.26 | 0.00 | 82 | 1014.5 |
| 20260902104559 | 54 | 269 | 5.0 | 8.0 | 0.00 | 0.26 | 0.00 | 82 | 1014.6 |
| 20260902103058 | 54 | 258 | 3.0 | 6.0 | 0.00 | 0.26 | 0.00 | 82 | 1014.6 |
| 20260902101617 | 54 | 266 | 3.0 | 6.0 | 0.00 | 0.26 | 0.00 | 82 | 1014.6 |
| 20260902100100 | 54 | 271 | 4.0 | 10.0 | 0.00 | 0.26 | 0.00 | 81 | 1014.6 |
| 20260902094557 | 55 | 266 | 4.0 | 9.0 | 0.00 | 0.26 | 0.00 | 81 | 1014.6 |
| 20260902093058 | 55 | 305 | 4.0 | 9.0 | 0.00 | 0.26 | 0.00 | 80 | 1014.5 |
| 20260902091558 | 55 | 292 | 5.0 | 10.0 | 0.00 | 0.26 | 0.00 | 80 | 1014.7 |
| 20260902090107 | 55 | 279 | 4.0 | 9.0 | 0.00 | 0.26 | 0.00 | 80 | 1014.6 |
| 20260902084601 | 56 | 266 | 5.0 | 10.0 | 0.00 | 0.26 | 0.00 | 79 | 1014.8 |
| 20260902083100 | 55 | 265 | 5.0 | 10.0 | 0.00 | 0.26 | 0.00 | 80 | 1014.9 |
| 20260902081604 | 55 | 263 | 5.0 | 9.0 | 0.00 | 0.26 | 0.00 | 81 | 1015.0 |
| 20260902080107 | 55 | 275 | 5.0 | 10.0 | 0.00 | 0.26 | 0.00 | 81 | 1015.0 |
| 20260902074559 | 55 | 267 | 6.0 | 10.0 | 0.00 | 0.26 | 0.00 | 81 | 1015.0 |
| 20260902073059 | 55 | 278 | 4.0 | 9.0 | 0.00 | 0.26 | 0.00 | 81 | 1015.1 |
| 20260902071601 | 55 | 254 | 2.0 | 7.0 | 0.00 | 0.26 | 0.00 | 81 | 1015.0 |
| 20260902070103 | 55 | 254 | 4.0 | 6.0 | 0.00 | 0.26 | 0.00 | 82 | 1014.8 |
| 20260902064606 | 56 | 254 | 3.0 | 8.0 | 0.00 | 0.26 | 0.00 | 81 | 1014.8 |
| 20260902063100 | 56 | 301 | 4.0 | 7.0 | 0.00 | 0.26 | 0.00 | 80 | 1014.9 |
| 20260902061623 | 56 | 261 | 4.0 | 9.0 | 0.00 | 0.26 | 0.00 | 80 | 1014.9 |
| 20260902060103 | 56 | 306 | 5.0 | 8.0 | 0.00 | 0.26 | 0.00 | 80 | 1014.8 |
| 20260902060014 | 56 | 292 | 5.0 | 8.0 | 0.00 | 0.26 | 0.00 | 80 | 1014.9 |
| 20260902054500 | 56 | 264 | 4.0 | 7.0 | 0.00 | 0.26 | 0.26 | 79 | 1014.9 |
| 20260902053002 | 57 | 251 | 4.0 | 10.0 | 0.00 | 0.26 | 0.26 | 79 | 1014.9 |
| 20260902051501 | 57 | 278 | 2.0 | 8.0 | 0.00 | 0.26 | 0.26 | 79 | 1015.1 |
| 20260902050106 | 57 | 263 | 4.0 | 8.0 | 0.00 | 0.26 | 0.26 | 78 | 1014.9 |
| 20260902050003 | 57 | 275 | 4.0 | 8.0 | 0.00 | 0.26 | 0.26 | 78 | 1014.9 |
| 20260902044501 | 57 | 250 | 5.0 | 9.0 | 0.00 | 0.26 | 0.26 | 78 | 1014.9 |
| 20260902043001 | 57 | 267 | 5.0 | 10.0 | 0.00 | 0.26 | 0.26 | 78 | 1014.7 |
| 20260902041608 | 58 | 269 | 5.0 | 11.0 | 0.00 | 0.26 | 0.26 | 78 | 1014.5 |
| 20260902040001 | 58 | 267 | 5.0 | 10.0 | 0.00 | 0.26 | 0.26 | 77 | 1014.3 |
| 20260902034559 | 59 | 267 | 4.0 | 8.0 | 0.00 | 0.26 | 0.26 | 77 | 1014.1 |
| 20260902033110 | 59 | 256 | 3.0 | 9.0 | 0.00 | 0.26 | 0.26 | 77 | 1013.9 |
| 20260902031559 | 59 | 261 | 4.0 | 9.0 | 0.00 | 0.26 | 0.26 | 78 | 1013.5 |
| 20260902030105 | 61 | 261 | 2.0 | 4.0 | 0.00 | 0.26 | 0.26 | 75 | 1013.3 |
| 20260902024559 | 63 | 275 | 2.0 | 4.0 | 0.00 | 0.26 | 0.26 | 72 | 1013.0 |
| 20260902023113 | 67 | 281 | 2.0 | 4.0 | 0.00 | 0.26 | 0.26 | 67 | 1012.8 |
| 20260902021616 | 67 | 127 | 1.0 | 4.0 | 0.00 | 0.26 | 0.26 | 64 | 1012.7 |
| 20260902014559 | 68 | 360 | 2.0 | 5.0 | 0.00 | 0.26 | 0.26 | 62 | 1012.3 |
| 20260902013059 | 69 | 360 | 3.0 | 10.0 | 0.00 | 0.26 | 0.26 | 62 | 1012.1 |
| 20260902011559 | 71 | 360 | 8.0 | 17.0 | 0.00 | 0.26 | 0.26 | 57 | 1011.8 |
| 20260902010001 | 75 | 132 | 1.0 | 4.0 | 0.00 | 0.26 | 0.26 | 52 | 1011.6 |
| 20260902004559 | 76 | 284 | 0.0 | 2.0 | 0.00 | 0.26 | 0.26 | 50 | 1011.3 |
| 20260902003100 | 76 | 283 | 0.0 | 2.0 | 0.00 | 0.26 | 0.26 | 48 | 1011.0 |
| 20260902001559 | 76 | 283 | 1.0 | 2.0 | 0.00 | 0.26 | 0.26 | 46 | 1011.0 |